[Iaude] MPEC M94: 2024 MS [a=0.99,e=0.06,i=4.0,H=28.8]

mpec at cfa.harvard.edu mpec at cfa.harvard.edu
Thu Jun 27 15:21:48 EDT 2024


M.P.E.C. 2024-M94                                 Issued 2024 June 27, 19:20 UT

     The Minor Planet Electronic Circulars contain information on unusual
         minor planets, routine data on comets and natural satellites,
         and occasional editorial announcements.  They are published
    on behalf of Division F of the International Astronomical Union by the
          Minor Planet Center, Smithsonian Astrophysical Observatory,
                          Cambridge, MA 02138, U.S.A.
			  
             Prepared using the Tamkin Foundation Computer Network

                              MPC at CFA.HARVARD.EDU
            URL https://www.minorplanetcenter.net/    ISSN 1523-6714

                                    2024 MS                                     


Observations:
     K24M00S* C2024 06 26.27766916 27 51.781+14 56 45.63         20.77wXEM094F52
     K24M00S  C2024 06 26.28950216 27 56.393+14 58 32.92         20.94wXEM094F52
     K24M00S  C2024 06 26.30135816 28 00.908+15 00 19.63         20.87wXEM094F52
     K24M00S  C2024 06 26.40655416 28 38.394+15 15 04.53         20.99GVEM094F52
     K24M00S  C2024 06 26.40720716 28 38.651+15 15 09.66         20.22GVEM094F52
     K24M00S KC2024 06 27.16797116 36 36.98 +16 46 07.7          21.1 GVEM094H21
     K24M00S KC2024 06 27.17086116 36 37.90 +16 46 27.3          21.0 GVEM094H21
     K24M00S KC2024 06 27.17424216 36 38.98 +16 46 50.1          21.1 GVEM094H21
     K24M00S  C2024 06 27.39899516 38 31.567+17 14 56.46         20.76GVEM094F52
     K24M00S  C2024 06 27.39982216 38 31.791+17 15 02.29         20.96GVEM094F52

Observer details:
F52 Pan-STARRS 2, Haleakala.  Observers J. Herman, T. Lowe, P. Minguez, A.
    Schultz, I. Smith.  Measurers K. Chambers, T. de Boer, J. Fairlamb, H.
    Gao, M. Huber, C.-C. Lin, E. Magnier, Y. Ramanjooloo, R. Wainscoat, R.
    Weryk.  1.8-m Ritchey-Chretien + CCD.
H21 Astronomical Research Observatory, Westfield.  Observer R. Holmes.
    Measurers T. Linder, R. Holmes, L. Horn.  1.3-m f/4.0 astrograph + CCD.

Orbital elements:
2024 MS                                                  Earth MOID = 0.0025 AU
Epoch 2024 Mar. 31.0 TT = JDT 2460400.5                 MPC                     
M  31.00510              (2000.0)            P               Q                  
n   1.00045627     Peri.  239.32423     -0.86333471     -0.49970437             
a   0.9900808      Node   270.61168     +0.48371859     -0.77975987             
e   0.0644114      Incl.    4.03416     +0.14376891     -0.37718708             
P   0.99           H   28.86          G   0.15           U   6                  
Residuals in seconds of arc
240626 F52  0.1+  0.1+    240626 F52  0.0   0.3-    240627 F52  0.0   0.3-
240626 F52  0.1-  0.2-    240627 H21  0.0   0.0     240627 F52  0.1+  0.5+
240626 F52  0.1+  0.1+    240627 H21  0.0   0.0
240626 F52  0.3-  0.2-    240627 H21  0.1+  0.0

Ephemeris:
2024 MS                  a,e,i = 0.99, 0.06, 4                   q = 0.9263
Date    TT    R. A. (2000) Decl.     Delta      r    Elong.  Phase     V
2024 05 28    05 52 11.1 -29 11 58   0.03606 0.9933    55.3   123.0    26.7
...
2024 06 12    06 54 04.8 -37 17 17   0.01342 1.0097    64.2   115.1    24.0
...
2024 06 20    12 59 17.1 -28 56 49   0.0047001.0181   114.5    65.2    19.6
...
2024 06 26    16 24 11.3 +14 17 21   0.01071 1.0238   132.9    46.6    20.8
2024 06 27    16 35 00.4 +16 31 24   0.01215 1.0247   132.1    47.4    21.1
2024 06 28    16 43 42.3 +18 14 20   0.01362 1.0256   131.3    48.2    21.4
...
2024 07 04    17 13 22.3 +23 14 32   0.02273 1.0308   127.9    51.1    22.6
...
2024 07 12    17 31 21.2 +24 49 17   0.03518 1.0375   125.6    52.8    23.6
...
2024 07 27    17 51 30.1 +23 50 21   0.05870 1.0485   122.8    54.5    24.8

A. U. Tomatic                (C) Copyright 2024 MPC           M.P.E.C. 2024-M94





More information about the Iaude mailing list